DMSP 5D-2 F12 DEB, 23250

Orbit data source: Space-Track

DMSP 5D-2 F12 DEB, 23250 is space debris in SSO originally from a launch on Mon, 29 Aug 1994 UTC launched from the Air Force Western Test Range (AFWTR). Debris objects in space refer to the collection of defunct objects orbiting the Earth. Examples of debris include non-operational satellites, rocket bodies, and fragments generated from explosions, collisions, or faulty payload assembly.

Loading next visibility...
Identifier
23250, 1994-057D
Orbit
SSO
Country
Flag of USUS
Related business
Manufacturer
Unknown
Mission
Spacecraft
Bus & Motor
Unknown
Mass
~5 kg wet, ~5 kg dry
Launch date (UTC)
1994-08-29 (31 years ago)
Launch vehicle
Unknown
Launch site
Air Force Western Test Range (AFWTR)
Object type
Payload
Rocket body
Debris
Shape & HBR
Cyl, 0.5 m
Radar Cross Section
0.707 m², Small (<0.1 m²)

Expand to show TLE details & history
Last TLE update: 10 hours ago

TLE from 10 hours ago
0 DMSP 5D-2 F12 DEB
1 23250U 94057D   25261.07031221  .00014946  00000-0  17495-2 0  9991
2 23250  98.0816 293.8967 0001874  42.5165  11.5053 14.85145158627285
Epoch: 2025-09-18T01:41Z
TLE epoch observation values (Epoch: 2025-09-18T01:41:14.974Z)
Latitude
53.35284°
Longitude
-99.59572°
Altitude
620.592 km
Speed
7.554 km/s
True Right ascension
18h 51m 48s
True Declination
53° 11' 05"
Sunlit
Object was in daylight at epoch
Visualization orbit readout
Latitude
Unknown
Longitude
Unknown
Altitude
Unknown
Speed
Unknown
Apparent Right ascension
Unknown
Apparent Declination
Unknown
Sunlit
N/A
Visualization observer readout
Local Sidereal Time
04:28:36
Azimuth
Unknown
Elevation
Unknown
Doppler factor
Unknown
Orbital elements
Apogee altitude
611.482 km
Perigee altitude
608.863 km
Semi-major axis
6,988.31 km
Eccentricity
0.00019
Inclination
98.0816°
RAAN
293.8967°
Arg. of periapsis
42.5165°
True anomaly
11.50958°
Mean anomaly
11.5053°
Eccentric anomaly
11.50744°
Mean motion
3.71522 °/min
Orbital period
96.9 mins
BSTAR
0.0017495
Loading maneuver chart data...
Computing Atmospheric mass density...
Loading historical data...
Loading historical data...
Loading historical data...
Loading historical data...
Loading historical data...
Loading historical data...
Loading historical data...

Documentation

Showing up to 5 results
|